Flag Weather past 2 weeks in Mobile, Alabama, U.S.A.

Now
56 °F

Overcast.


Feels Like: 52 °F
Forecast: 37 / 62 °F
Wind: 14 mph from Northwest

Location: Mobile Downtown Airport

Current Time: Nov 25, 2014 at 6:25:58 PM

Latest Report: Nov 25, 2014 at 5:53 PM


Visibility: 10 mi

Pressure: 30.13 "Hg

Humidity: 47%

Dew point: 36 °F

Location of MobileLocation

Historic Weather in Mobile — Graph

°F

Mobile temperature yesterday

Maximum temperature yesterday: 79 °F (at 2:53 PM)
Minimum temperature yesterday: 58 °F (at 11:53 PM)
Average temperature yesterday: 69 °F

Past Weeks' High & Low Weather Summary

 TemperatureHumidityPressure
High79 °F (Nov 24, 2:53 PM)100% (Nov 11, 12:04 AM)30.49 "Hg (Nov 11, 12:04 AM)
Low25 °F (Nov 19, 4:53 AM)20% (Nov 19, 1:53 PM)29.69 "Hg (Nov 23, 1:53 PM)
Average53 °F73%30.15 "Hg
* Reported Nov 10 4:53 PM — Nov 25 4:53 PM, Mobile, Weather by CustomWeather, © 2014

Note: Actual official high and low records may vary slightly from our data, if they occured in-between our weather recording intervals... More about our weather records

Advertising

Mobile weather history for previous 24 hours

 ConditionsComfort  
Time TempWeatherWind HumidityBarometerVisibility
4:53 PM
Nov 25
57 °FPassing clouds.13 mph44%30.11 "Hg10 mi
3:53 PM58 °FOvercast.18 mph36%30.10 "Hg10 mi
2:53 PM60 °FPartly sunny.16 mph32%30.05 "Hg10 mi
1:53 PM61 °FPartly sunny.16 mph30%30.05 "Hg10 mi
12:53 PM62 °FScattered clouds.17 mph31%30.07 "Hg10 mi
11:53 AM62 °FSunny.14 mph31%30.09 "Hg10 mi
10:53 AM61 °FSunny.14 mph38%30.12 "Hg10 mi
9:53 AM57 °FPartly sunny.13 mph47%30.15 "Hg10 mi
8:53 AM54 °FScattered clouds.9 mph55%30.15 "Hg10 mi
7:53 AM54 °FScattered clouds.8 mph55%30.14 "Hg10 mi
6:53 AM53 °FOvercast.9 mph59%30.13 "Hg10 mi
5:53 AM54 °FOvercast.10 mph53%30.11 "Hg10 mi
4:53 AM54 °FPassing clouds.10 mph53%30.09 "Hg10 mi
3:53 AM55 °FPassing clouds.7 mph53%30.09 "Hg10 mi
2:53 AM55 °FPartly cloudy.13 mph51%30.08 "Hg10 mi
1:53 AM55 °FPassing clouds.15 mph53%30.08 "Hg10 mi
12:53 AM56 °FPassing clouds.15 mph53%30.06 "Hg10 mi
11:53 PM
Nov 24
58 °FOvercast.16 mph54%30.05 "Hg10 mi
10:53 PM59 °FOvercast.14 mph56%30.06 "Hg10 mi
9:53 PM60 °FPassing clouds.16 mph58%30.03 "Hg10 mi
8:53 PM60 °FClear.14 mph62%30.00 "Hg10 mi
7:53 PM61 °FClear.12 mph65%29.99 "Hg10 mi
6:53 PM64 °FClear.13 mph61%29.97 "Hg10 mi
Weather by CustomWeather, © 2014

See weather overviewHow to use our weather pages